Tracking 29892 objects as of 21-Nov-2024
HD Live streaming from Space Station
objects crossing your sky now

STARLINK-3317

Track STARLINK-3317 now!
10-day predictions
STARLINK-3317 is classified as:


NORAD ID: 50156
Int'l Code: 2021-125A
Perigee: 545.9 km
Apogee: 547.9 km
Inclination: 53.2 °
Period: 95.4 minutes
Semi major axis: 6917 km
RCS: Unknown
Launch date: December 18, 2021
Source: United States (US)
Launch site: AIR FORCE WESTERN TEST RANGE (AFWTR)
Your satellite tracking list
Your tracking list is empty




NASA's NSSDC Master Catalog

Two Line Element Set (TLE):
1 50156U 21125A   24325.14141066  .00000176  00000-0  29141-4 0  9992
2 50156  53.2171 219.4504 0001421  95.2951 264.8203 15.08844231164992
Source of the keplerian elements: AFSPC